This is the latest recevied weather packets stored in our database for station/object KE8WMS. If no packets are shown the sender has not sent any weather packets the latest 10 day(s).
| Time | Temp. | Humidity | Pressure | Rain* | Wind** | Luminosity | Snow |
|---|---|---|---|---|---|---|---|
| 1777645926 | 5.56° C | 97% | 1010.1 hPa | 1.27 mm | - | 49 W/m² | - |
| 1777645623 | 5.56° C | 97% | 1009.8 hPa | 3.05 mm | - | 52 W/m² | - |
| 1777645318 | 5.56° C | 97% | 1009.9 hPa | 1.78 mm | - | 57 W/m² | - |
| 1777645014 | 5.56° C | 97% | 1009.8 hPa | 1.27 mm | - | 52 W/m² | - |
| 1777644712 | 5.56° C | 97% | 1009.9 hPa | 3.05 mm | - | 64 W/m² | - |
| 1777644408 | 5.56° C | 97% | 1009.7 hPa | 1.78 mm | - | 63 W/m² | - |
| 1777644105 | 5.56° C | 97% | 1009.9 hPa | 0 mm | - | 49 W/m² | - |
| 1777643802 | 5.56° C | 97% | 1009.8 hPa | 1.27 mm | - | 39 W/m² | - |
| 1777643499 | 5.56° C | 97% | 1010 hPa | 1.27 mm | - | 46 W/m² | - |
| 1777643196 | 5.56° C | 97% | 1009.7 hPa | 0 mm | - | 44 W/m² | - |
| 1777642892 | 6.11° C | 97% | 1010.1 hPa | 0 mm | - | 33 W/m² | - |
| 1777642589 | 5.56° C | 97% | 1009.8 hPa | 0 mm | - | 26 W/m² | - |
| 1777642286 | 6.11° C | 97% | 1010.1 hPa | 0 mm | - | 57 W/m² | - |
| 1777641983 | 6.11° C | 97% | 1010 hPa | 0 mm | - | 65 W/m² | - |
| 1777641678 | 6.11° C | 97% | 1009.8 hPa | 0 mm | - | 49 W/m² | - |
| 1777641373 | 6.11° C | 97% | 1009.7 hPa | 0 mm | - | 91 W/m² | - |
| 1777641069 | 6.11° C | 97% | 1010 hPa | 0 mm | - | 45 W/m² | - |
| 1777640765 | 6.11° C | 97% | 1009.7 hPa | 0 mm | - | 54 W/m² | - |
| 1777640463 | 6.11° C | 97% | 1009.9 hPa | 0 mm | - | 31 W/m² | - |
| 1777640159 | 6.11° C | 97% | 1009.8 hPa | 0 mm | - | 35 W/m² | - |
| 1777639856 | 6.11° C | 97% | 1009.7 hPa | 0 mm | - | 34 W/m² | - |
| 1777639554 | 6.11° C | 97% | 1009.7 hPa | 0 mm | - | 69 W/m² | - |
| 1777639250 | 5.56° C | 97% | 1009.7 hPa | 0 mm | - | 44 W/m² | - |
| 1777638946 | 5.56° C | 97% | 1009.4 hPa | 0 mm | - | 53 W/m² | - |
| 1777638642 | 5.56° C | 97% | 1009.8 hPa | 1.78 mm | - | 53 W/m² | - |
* Rain latest hour (hover to see other rain measurements)
** Current wind speed in m/s (hover to see current wind gust speed)